Starlink 31293

operational
NORAD ID: 58952 Int'l Des: 2024-027 Owner: SPXS Country: US Constellation: starlink
LEOCIRCULAR

关于 Starlink 31293

正在加载描述...

实时位置

正在加载3D地球...

即将过境

高度历史

Altitude vs Time

uPlot chart will show altitude changes over time

两行轨道根数

1 58952U 24027X 25353.90682385 .00000846 00000-0 40690-4 0 9994
2 58952 53.1621 320.1726 0001228 100.2393 259.8746 15.30199786105119
Epoch: Dec 19, 2025 • Age: 8 hours

当前状态

高度 476.8 km
速度 7.63 km/s
星下点 -3.10°S, 143.52°E
发射日期 Feb 10, 2024
运行时间 1.8 years
类型 internet

技术详情

分类 Payload
质量 730.00 kg
干质量 700.00 kg
总质量 730.00 kg
长度 0.30 m
直径 4.10 m
跨度 29.00 m
形状 Box + pan
制造商 SPXS
平台类型 Starlink V2M
阶段状态 In Orbit
所有者/国家 SPXS/US

大型星座

Loading constellations...